[[{"header":{"parameterUnit":"m.s-1","parameterCategory":1,"la1":30.2991,"la2":30.254,"lo1":-89.0895,"lo2":-89.0444,"dy":0.0017,"dx":0.0017,"nx":28,"ny":28,"refTime":"2024-07-24T03:00:00:Z","depth":0,"parameterNumber":2,"parameterNumberName":"U-component_of_WINDS"},"data":[0,0,0,0,0,0,0,0,0,0,0,0,0,0,0,0,0,0,0,0,0,0,0,0,0,0,0,0,0,0,0,0,0,0,0,0,0,0,0,0,0,0,0,0,0,0,0,0,0,0,0,0,0,0,0,0,0,0,-0.0512,-0.0513,0,-0.0583,-0.0584,-0.0585,-0.065,-0.0651,-0.0652,-0.0652,-0.0722,-0.0723,-0.0724,0,0,0,0,0,0,0,0,0,0,0,0,0,-0.0429,-0.0431,-0.0512,-0.0513,-0.0514,-0.0583,-0.0584,-0.0585,-0.065,-0.0651,-0.0652,-0.0653,-0.0721,-0.0722,-0.0724,0,0,0,0,0,0,0,0,0,0,0,0,0,-0.0479,-0.0431,-0.0512,-0.0555,-0.0559,-0.0583,-0.0584,-0.0585,-0.065,-0.0651,-0.0652,-0.0653,-0.0721,-0.0722,-0.0724,-0.071,0,0,-0.0729,-0.073,0,0,0,0,0,0,0,0,-0.0476,-0.0482,-0.0547,-0.0552,-0.0557,-0.0609,-0.058,-0.0627,-0.0649,-0.0615,-0.0652,-0.0654,-0.0683,-0.0688,-0.0698,-0.0713,-0.0716,-0.0729,-0.073,-0.0731,-0.0731,0,0,0,0,0,0,0,-0.0473,-0.0479,-0.054,-0.0548,-0.0554,-0.0569,-0.0578,-0.059,-0.0641,-0.0618,-0.0623,-0.0631,-0.0686,-0.0697,-0.07,-0.0717,-0.0729,-0.0731,-0.0732,-0.0732,-0.0725,-0.0724,0,0,0,0,0,0,-0.0463,-0.0476,-0.0538,-0.0542,-0.0519,-0.057,-0.0579,-0.0591,-0.0641,-0.065,-0.063,-0.0634,-0.0693,-0.0698,-0.0703,-0.0691,-0.0731,-0.0732,-0.0733,-0.0726,-0.0724,-0.0723,0,0,0,0,0,0,-0.0461,-0.0468,-0.0535,-0.0511,-0.052,-0.057,-0.0583,-0.0592,-0.0603,-0.065,-0.0659,-0.0632,-0.0694,-0.0701,-0.0708,-0.0694,-0.0733,-0.0735,-0.0727,-0.0725,-0.0724,-0.0665,0,0,0,0,0,0,-0.0459,-0.0467,-0.0463,-0.051,-0.0521,-0.054,-0.0582,-0.0592,-0.0606,-0.0612,-0.0654,-0.0663,-0.0696,-0.0705,-0.071,-0.0697,-0.0736,-0.0729,-0.0726,-0.0724,-0.0668,-0.0661,-0.0655,0,0,0,0,0,-0.0455,-0.0443,-0.0462,-0.047,-0.0518,-0.0539,-0.0545,-0.0585,-0.0604,-0.06,-0.0631,-0.0661,-0.0695,-0.0706,-0.0711,-0.0698,-0.073,-0.0727,-0.0725,-0.0671,-0.0663,-0.0656,0,0,0,0,0,0,-0.0392,-0.045,-0.0472,-0.0475,-0.0501,-0.055,-0.0546,-0.0574,-0.0595,-0.0599,-0.0647,-0.0656,-0.0658,-0.0679,-0.069,-0.0688,-0.0716,-0.0715,-0.0674,-0.0666,-0.066,-0.0655,-0.0737,0,0,0,0,0,-0.0378,-0.0391,-0.0441,-0.0438,-0.0451,-0.0496,-0.0507,-0.0535,-0.0564,-0.0575,-0.0606,-0.0632,-0.0649,-0.0659,-0.0676,-0.0672,-0.0682,-0.0666,-0.0659,-0.0653,-0.0651,-0.065,-0.0644,-0.0714,-0.0714,-0.0714,0,0,-0.035,-0.0383,-0.0389,-0.0427,-0.0451,-0.0463,-0.0505,-0.0516,-0.0525,-0.0577,-0.0586,-0.0609,-0.0642,-0.0643,-0.0645,-0.066,-0.0634,-0.065,-0.0645,-0.0646,-0.0647,-0.064,-0.0634,-0.0713,-0.0713,-0.0713,0,0,-0.0305,-0.0331,-0.0332,-0.0356,-0.0392,-0.0422,-0.0422,-0.0466,-0.0484,-0.0495,-0.0534,-0.0544,-0.0572,-0.0593,-0.0608,-0.057,-0.0599,-0.0575,-0.0541,-0.0539,-0.0534,-0.0529,-0.0516,-0.051,-0.0573,-0.0572,-0.0572,0,-0.0265,-0.0286,-0.0329,-0.0338,-0.0353,-0.0401,-0.0402,-0.0422,-0.0462,-0.0471,-0.0488,-0.0524,-0.0549,-0.0556,-0.0547,-0.0557,-0.0558,-0.057,-0.0531,-0.0527,-0.0523,-0.0511,-0.0506,-0.0569,-0.057,-0.057,-0.057,0,-0.0235,-0.0248,-0.0244,-0.0283,-0.0298,-0.0302,-0.0345,-0.0355,-0.0381,-0.0409,-0.0419,-0.0451,-0.0476,-0.048,-0.0505,-0.049,-0.0499,-0.0523,-0.0552,-0.0512,-0.0502,-0.0498,-0.0565,-0.0566,-0.0567,-0.0568,0,0,-0.0152,-0.0214,-0.0212,-0.023,-0.0274,-0.0284,-0.0291,-0.0316,-0.0324,-0.0349,-0.0355,-0.0377,-0.04,-0.0416,-0.0445,-0.0443,-0.0412,-0.0468,-0.0469,-0.0456,-0.0397,-0.0379,-0.0373,-0.0431,-0.043,-0.043,-0.0394,0,-0.0114,-0.013,-0.0169,-0.0172,-0.0185,-0.0231,-0.0236,-0.0263,-0.0289,-0.0303,-0.0331,-0.0346,-0.0375,-0.0385,-0.0386,-0.0415,-0.04,-0.0419,-0.0436,-0.0437,-0.0427,-0.0367,-0.0348,-0.0313,-0.039,-0.039,-0.0389,0,-0.0073,-0.0096,-0.0101,-0.0144,-0.0151,-0.0155,-0.0182,-0.0195,-0.0225,-0.0244,-0.0262,-0.0294,-0.0302,-0.033,-0.0342,-0.0353,-0.0362,-0.0378,-0.0377,-0.0381,-0.0411,-0.0369,-0.0303,-0.0298,-0.0383,-0.0384,-0.0384,0,-0.0012,-0.0045,-0.0052,-0.0066,-0.0116,-0.0118,-0.0139,-0.0171,-0.0184,-0.0206,-0.0215,-0.0238,-0.025,-0.0267,-0.0304,-0.032,-0.0311,-0.0341,-0.0326,-0.0325,-0.0323,-0.0322,-0.0257,-0.0328,-0.0328,-0.0328,-0.0328,0,0.0034,0.0033,-0.0026,-0.003,-0.0032,-0.0077,-0.0077,-0.0102,-0.013,-0.0139,-0.018,-0.0187,-0.0235,-0.0248,-0.0277,-0.0282,-0.0287,-0.0302,-0.031,-0.0299,-0.0297,-0.0306,-0.0309,-0.0327,-0.0327,-0.0328,-0.0328,0,0.0101,0.0062,0.0051,0.0004,-0.0007,-0.0007,-0.0047,-0.0052,-0.008,-0.0092,-0.0097,-0.0141,-0.0158,-0.0196,-0.0223,-0.0243,-0.0241,-0.0254,-0.0231,-0.0235,-0.0218,-0.0219,-0.0157,-0.0151,-0.0225,-0.0224,-0.0223,0,0.0132,0.013,0.0083,0.0074,0.0054,0.004,0.0026,-0.0017,-0.003,-0.0065,-0.0066,-0.0086,-0.0105,-0.013,-0.0164,-0.0185,-0.0199,-0.0176,-0.0203,-0.0192,-0.0199,-0.0199,-0.0199,-0.017,-0.0169,-0.0168,-0.0168,0,0.0193,0.0173,0.0155,0.013,0.0114,0.0093,0.0069,0.0064,0.0015,0.0003,-0.0015,-0.003,-0.0058,-0.0078,-0.0104,-0.0124,-0.0153,-0.0159,-0.0157,-0.0145,-0.0132,-0.0139,-0.0215,-0.016,-0.0161,-0.0162,-0.0162,-0.0162,0.0242,0.0238,0.0205,0.0186,0.0163,0.0142,0.0134,0.0105,0.0088,0.0061,0.0037,0.0021,-0.0009,-0.0048,-0.0066,-0.0078,-0.0093,-0.009,-0.0089,-0.0087,-0.0083,-0.0129,-0.0083,-0.0083,-0.0084,-0.0084,-0.0084,0,0.03,0.0276,0.0259,0.0227,0.0212,0.0185,0.0157,0.0147,0.0132,0.0106,0.0088,0.0067,0.0048,0.0013,-0.0009,-0.0012,-0.0026,-0.0017,-0.0017,-0.0021,-0.0068,-0.0068,-0.0005,-0.0005,-0.0005,-0.0005,-0.0005,-0.0005,0.0329,0.032,0.0297,0.0278,0.0254,0.0237,0.0224,0.0204,0.0183,0.0161,0.0144,0.0121,0.0092,0.0067,0.0049,0.0039,0.0033,0.0047,0.0033,-0.001,-0.0018,-0.0025,-0.0025,0.0046,0.0046,0.0081,0.0081,0.0081]},{"header":{"parameterUnit":"m.s-1","parameterCategory":1,"la1":30.2991,"la2":30.254,"lo1":-89.0895,"lo2":-89.0444,"dy":0.0017,"dx":0.0017,"nx":28,"ny":28,"refTime":"2024-07-24T03:00:00:Z","depth":0,"parameterNumber":3,"parameterNumberName":"V-component_of_WINDS"},"data":[0,0,0,0,0,0,0,0,0,0,0,0,0,0,0,0,0,0,0,0,0,0,0,0,0,0,0,0,0,0,0,0,0,0,0,0,0,0,0,0,0,0,0,0,0,0,0,0,0,0,0,0,0,0,0,0,0,0,2.0736,2.0734,0,2.0574,2.0572,2.057,2.0505,2.0506,2.0506,2.0506,2.0333,2.0328,2.0323,0,0,0,0,0,0,0,0,0,0,0,0,0,2.0982,2.0978,2.0736,2.0734,2.0732,2.0574,2.0572,2.057,2.0505,2.0506,2.0506,2.0506,2.0334,2.0328,2.0322,0,0,0,0,0,0,0,0,0,0,0,0,0,2.0853,2.0976,2.0736,2.0681,2.0674,2.0575,2.0572,2.0569,2.0505,2.0506,2.0506,2.0507,2.0336,2.0329,2.0321,2.0263,0,0,2.0298,2.0295,0,0,0,0,0,0,0,0,2.086,2.0844,2.0691,2.0684,2.0677,2.0561,2.0595,2.0466,2.0505,2.0569,2.0506,2.0507,2.0407,2.0394,2.0362,2.0254,2.0247,2.0298,2.0293,2.029,2.0288,0,0,0,0,0,0,0,2.0869,2.085,2.0671,2.0689,2.068,2.0662,2.0644,2.057,2.0486,2.0563,2.0558,2.054,2.0404,2.0369,2.0357,2.0244,2.0298,2.0291,2.0287,2.0284,2.0081,2.008,0,0,0,0,0,0,2.0889,2.0858,2.0677,2.0667,2.0772,2.0657,2.0637,2.0597,2.0487,2.0471,2.054,2.0538,2.0382,2.0366,2.0351,2.0275,2.029,2.0283,2.0279,2.0082,2.0081,2.008,0,0,0,0,0,0,2.0894,2.0873,2.0683,2.0761,2.0736,2.0652,2.0607,2.0594,2.0559,2.047,2.0454,2.0521,2.0382,2.0362,2.0286,2.0268,2.028,2.0273,2.0083,2.0081,2.008,2.0123,0,0,0,0,0,0,2.0901,2.0875,2.0854,2.0761,2.0732,2.0623,2.0606,2.059,2.0548,2.0543,2.0447,2.0432,2.0381,2.0297,2.0278,2.0258,2.0267,2.0084,2.0082,2.008,2.0122,2.0123,2.0123,0,0,0,0,0,2.091,2.087,2.0853,2.0831,2.0703,2.0622,2.0604,2.0549,2.0547,2.0523,2.0465,2.0435,2.0274,2.029,2.0268,2.0245,2.0085,2.0082,2.0081,2.0122,2.0123,2.0123,0,0,0,0,0,0,2.0959,2.0857,2.0836,2.0766,2.0703,2.0611,2.0579,2.0551,2.0486,2.0484,2.0415,2.0394,2.0324,2.0277,2.0297,2.0183,2.0177,2.017,2.0216,2.0216,2.0216,2.0228,2.0261,0,0,0,0,0,2.0962,2.0907,2.082,2.0765,2.0736,2.0663,2.0625,2.0588,2.052,2.0492,2.0429,2.0361,2.0295,2.0253,2.0187,2.0116,2.0094,2.0089,2.009,2.0091,2.0085,2.0044,2.0041,2.0073,2.0073,2.0073,0,0,2.0966,2.0904,2.0873,2.0774,2.0721,2.0663,2.0641,2.0581,2.0537,2.0482,2.0407,2.0359,2.0279,2.0205,2.0169,2.0164,2.0072,2.0088,2.009,2.0083,2.0042,2.0039,2.0036,2.0072,2.0072,2.0072,0,0,2.0945,2.0893,2.0842,2.0791,2.0713,2.0665,2.0654,2.0566,2.0532,2.0457,2.0415,2.0361,2.0249,2.0194,2.0151,2.0112,2.0081,2.0092,2.0094,2.0055,2.0052,2.005,2.0035,2.0031,2.0088,2.0088,2.0088,0,2.096,2.0874,2.0819,2.0762,2.0719,2.0671,2.0618,2.057,2.0473,2.0443,2.044,2.0299,2.0242,2.0155,2.0146,2.0113,2.0096,2.0102,2.0058,2.0054,2.0051,2.0036,2.0031,2.0089,2.0089,2.0089,2.0089,0,2.0895,2.0836,2.0804,2.0716,2.067,2.0615,2.055,2.0509,2.0477,2.043,2.0353,2.0283,2.0203,2.018,2.0146,2.0088,2.0087,2.0072,2.0064,2.0051,2.0036,2.003,2.0092,2.0091,2.0091,2.009,0,0,2.0897,2.0782,2.0771,2.0731,2.0642,2.0594,2.0537,2.0462,2.0428,2.0363,2.0312,2.022,2.0206,2.0157,2.0117,2.0083,2.0056,2.0071,2.0068,2.007,1.9987,1.9999,1.9994,2.0036,2.0035,2.0034,1.9994,0,2.0864,2.0762,2.0712,2.0631,2.0576,2.053,2.048,2.0419,2.0374,2.0318,2.0267,2.0203,2.0189,2.016,2.0124,2.0067,2.0038,2.0069,1.9986,1.9984,2.0007,1.9986,1.9998,1.9963,1.9988,1.9987,1.9986,0,2.081,2.0749,2.0664,2.0584,2.0558,2.0515,2.0442,2.039,2.032,2.0289,2.0237,2.0199,2.0135,2.0134,2.0045,2.0067,2.003,1.9998,1.9995,1.9983,1.9983,1.9973,1.9951,1.9946,1.9976,1.9977,1.9978,0,2.082,2.0716,2.0652,2.0619,2.0523,2.0494,2.0452,2.0383,2.0341,2.0277,2.0249,2.0178,2.0138,2.0083,2.0025,2.003,1.9942,1.9935,1.9913,1.9914,1.9895,1.9896,1.9865,1.9873,1.9873,1.9874,1.9874,0,2.0786,2.0736,2.0656,2.0616,2.0558,2.0501,2.0444,2.0398,2.0337,2.0287,2.0242,2.0195,2.0123,2.0066,2.0021,1.9954,1.9936,1.9908,1.9897,1.9912,1.9915,1.9885,1.9886,1.9872,1.9872,1.9873,1.9873,0,2.0786,2.0731,2.0658,2.0575,2.0553,2.0513,2.0441,2.04,2.0354,2.029,2.0272,2.0198,2.0129,2.0068,1.9975,1.9945,1.9876,1.9862,1.9901,1.9894,1.9875,1.9877,1.9822,1.9812,1.9829,1.9829,1.9829,0,2.0768,2.0729,2.0642,2.0607,2.0567,2.051,2.0468,2.041,2.0368,2.0287,2.0255,2.0184,2.0124,2.0016,1.9953,1.9883,1.9866,1.9851,1.9854,1.9871,1.9864,1.9867,1.9863,1.9851,1.9851,1.9852,1.9852,0,2.0741,2.0717,2.066,2.0594,2.0546,2.049,2.0433,2.0406,2.0337,2.0291,2.0223,2.0176,2.0085,2.0014,1.9937,1.9891,1.9859,1.9852,1.9843,1.9857,1.9881,1.9867,1.9901,1.9853,1.9853,1.9852,1.9852,1.9852,2.0731,2.0694,2.0629,2.0567,2.0518,2.0466,2.0424,2.0374,2.0317,2.0239,2.0208,2.0138,2.0069,1.9963,1.9918,1.9861,1.9855,1.9842,1.9838,1.9835,1.9838,1.9892,1.9847,1.9847,1.9847,1.9846,1.9846,0,2.0701,2.0658,2.0602,2.0525,2.0476,2.0455,2.039,2.035,2.029,2.023,2.0173,2.0094,2.0026,1.9959,1.9887,1.9854,1.9838,1.9837,1.9838,1.9828,1.9848,1.9863,1.9851,1.9851,1.9851,1.9851,1.9852,1.9852,2.068,2.0617,2.0585,2.0497,2.0453,2.0386,2.0351,2.0303,2.0255,2.017,2.0114,2.0072,2.0009,1.9932,1.9869,1.985,1.9825,1.9829,1.9807,1.9826,1.9826,1.9826,1.984,1.9824,1.9824,1.9791,1.9791,1.979]}]]